User: anonymous   Login
Location: Albany
(35.0000°S, 118.0000°E)
Time: 15:06:24
(UTC-04:00)
Language:

Transit 2A - Orbit

View from above orbital plane
View from above orbital plane
View from above satellite
View from above satellite

Ground track
Ground track

The orbit data is extracted from the following two-line orbital elements,

1    45U 60007A   17177.81281460 -.00000075 +00000-0 +80721-5 0  9991
2    45 066.6948 004.2516 0252535 025.0009 336.3074 14.33556181966943
Epoch (UTC): 26 June 2017 19:30:27
Eccentricity: 0.0252535
inclination: 66.6948°
perigee height: 599 km
apogee height: 960 km
right ascension of ascending node: 4.2516°
argument of perigee: 25.0009°
revolutions per day: 14.33556181
mean anomaly at epoch: 336.3074°
orbit number at epoch: 96694

The dashed part of the orbit path shows where the satellite is in the earth's shadow,  

DLR